Time,TemperatureF,DewpointF,PressureIn,WindDirection,WindDirectionDegrees,WindSpeedMPH,WindSpeedGustMPH,Humidity,HourlyPrecipIn,Conditions,Clouds,dailyrainin,SoftwareType,DateUTC
2013-01-18 00:05:00,29.1,28.4,30.24,WSW,240,0.0,0.0,97,0.00,,,0.00,Wunderground v.1.15,2013-01-18 08:05:00,
2013-01-18 00:11:00,29.0,28.3,30.24,WSW,240,0.0,0.0,97,0.00,,,0.00,Wunderground v.1.15,2013-01-18 08:11:00,
2013-01-18 00:17:00,29.0,28.3,30.24,WSW,240,0.0,0.0,97,0.00,,,0.00,Wunderground v.1.15,2013-01-18 08:17:00,
2013-01-18 00:22:00,29.0,28.3,30.24,WSW,240,0.0,0.0,97,0.00,,,0.00,Wunderground v.1.15,2013-01-18 08:22:00,
2013-01-18 00:28:00,29.0,28.3,30.24,WSW,240,0.0,0.0,97,0.00,,,0.00,Wunderground v.1.15,2013-01-18 08:28:00,
2013-01-18 00:33:00,29.0,28.3,30.24,WSW,240,0.0,0.0,97,0.00,,,0.00,Wunderground v.1.15,2013-01-18 08:33:00,
2013-01-18 00:38:00,28.9,28.2,30.24,WSW,240,0.0,0.0,97,0.00,,,0.00,Wunderground v.1.15,2013-01-18 08:38:00,
2013-01-18 00:44:00,28.9,28.2,30.24,WSW,240,0.0,0.0,97,0.00,,,0.00,Wunderground v.1.15,2013-01-18 08:44:00,
2013-01-18 00:49:00,28.9,28.2,30.24,WSW,240,0.0,0.0,97,0.00,,,0.00,Wunderground v.1.15,2013-01-18 08:49:00,
2013-01-18 00:55:00,28.9,28.2,30.24,WSW,240,0.0,0.0,97,0.00,,,0.00,Wunderground v.1.15,2013-01-18 08:55:00,
2013-01-18 01:01:00,28.8,28.1,30.24,WSW,240,0.0,0.0,97,0.00,,,0.00,Wunderground v.1.15,2013-01-18 09:01:00,
2013-01-18 01:07:00,28.5,27.8,30.24,WSW,240,0.0,0.0,97,0.00,,,0.00,Wunderground v.1.15,2013-01-18 09:07:00,
2013-01-18 01:13:00,28.5,27.8,30.24,WSW,240,0.0,0.0,97,0.00,,,0.00,Wunderground v.1.15,2013-01-18 09:13:00,
2013-01-18 01:19:00,28.5,27.8,30.23,WSW,240,0.0,0.0,97,0.00,,,0.00,Wunderground v.1.15,2013-01-18 09:19:00,
2013-01-18 01:25:00,28.5,27.8,30.24,WSW,240,0.0,0.0,97,0.00,,,0.00,Wunderground v.1.15,2013-01-18 09:25:00,
2013-01-18 01:31:00,28.7,28.0,30.24,WSW,240,0.0,0.0,97,0.00,,,0.00,Wunderground v.1.15,2013-01-18 09:31:00,
2013-01-18 01:37:00,28.6,27.9,30.23,WSW,240,0.0,0.0,97,0.00,,,0.00,Wunderground v.1.15,2013-01-18 09:37:00,
2013-01-18 01:43:00,28.6,27.9,30.23,WSW,240,0.0,0.0,97,0.00,,,0.00,Wunderground v.1.15,2013-01-18 09:43:00,
2013-01-18 01:49:00,28.5,27.8,30.24,WSW,240,0.0,0.0,97,0.00,,,0.00,Wunderground v.1.15,2013-01-18 09:49:00,
2013-01-18 01:55:00,28.4,27.7,30.23,WSW,240,0.0,0.0,97,0.00,,,0.00,Wunderground v.1.15,2013-01-18 09:55:00,
2013-01-18 02:01:00,28.4,27.7,30.24,WSW,240,0.0,0.0,97,0.00,,,0.00,Wunderground v.1.15,2013-01-18 10:01:00,
2013-01-18 02:07:00,28.5,27.8,30.24,WSW,240,0.0,0.0,97,0.00,,,0.00,Wunderground v.1.15,2013-01-18 10:07:00,
2013-01-18 02:13:00,28.5,27.8,30.24,WSW,240,0.0,0.0,97,0.00,,,0.00,Wunderground v.1.15,2013-01-18 10:13:00,
2013-01-18 02:19:00,28.5,27.8,30.24,WSW,240,0.0,0.0,97,0.00,,,0.00,Wunderground v.1.15,2013-01-18 10:19:00,
2013-01-18 02:25:00,28.5,27.8,30.24,WSW,240,0.0,0.0,97,0.00,,,0.00,Wunderground v.1.15,2013-01-18 10:25:00,
2013-01-18 02:31:00,28.4,27.7,30.24,WSW,240,0.0,0.0,97,0.00,,,0.00,Wunderground v.1.15,2013-01-18 10:31:00,
2013-01-18 02:36:00,28.3,27.6,30.24,WSW,240,0.0,0.0,97,0.00,,,0.00,Wunderground v.1.15,2013-01-18 10:36:00,
2013-01-18 02:42:00,28.4,27.7,30.24,WSW,240,0.0,0.0,97,0.00,,,0.00,Wunderground v.1.15,2013-01-18 10:42:00,
2013-01-18 02:47:00,28.4,27.7,30.24,WSW,240,0.0,0.0,97,0.00,,,0.00,Wunderground v.1.15,2013-01-18 10:47:00,
2013-01-18 02:53:00,28.4,27.7,30.24,WSW,240,0.0,0.0,97,0.00,,,0.00,Wunderground v.1.15,2013-01-18 10:53:00,
2013-01-18 02:58:00,28.4,27.7,30.24,WSW,240,0.0,0.0,97,0.00,,,0.00,Wunderground v.1.15,2013-01-18 10:58:00,
2013-01-18 03:04:00,28.3,27.6,30.23,WSW,240,0.0,0.0,97,0.00,,,0.00,Wunderground v.1.15,2013-01-18 11:04:00,
2013-01-18 03:09:00,28.3,27.6,30.23,WSW,240,0.0,0.0,97,0.00,,,0.00,Wunderground v.1.15,2013-01-18 11:09:00,
2013-01-18 03:15:00,28.3,27.6,30.23,WSW,240,0.0,0.0,97,0.00,,,0.00,Wunderground v.1.15,2013-01-18 11:15:00,
2013-01-18 03:21:00,28.2,27.5,30.23,WSW,240,0.0,0.0,97,0.00,,,0.00,Wunderground v.1.15,2013-01-18 11:21:00,
2013-01-18 03:27:00,28.1,27.4,30.23,WSW,240,0.0,0.0,97,0.00,,,0.00,Wunderground v.1.15,2013-01-18 11:27:00,
2013-01-18 03:33:00,28.1,27.4,30.23,WSW,240,0.0,0.0,97,0.00,,,0.00,Wunderground v.1.15,2013-01-18 11:33:00,
2013-01-18 03:39:00,27.9,27.2,30.22,WSW,240,0.0,0.0,97,0.00,,,0.00,Wunderground v.1.15,2013-01-18 11:39:00,
2013-01-18 03:45:00,27.9,27.2,30.22,WSW,240,0.0,0.0,97,0.00,,,0.00,Wunderground v.1.15,2013-01-18 11:45:00,
2013-01-18 03:51:00,27.8,27.1,30.22,WSW,240,0.0,0.0,97,0.00,,,0.00,Wunderground v.1.15,2013-01-18 11:51:00,
2013-01-18 03:57:00,27.6,26.9,30.22,WSW,240,0.0,0.0,97,0.00,,,0.00,Wunderground v.1.15,2013-01-18 11:57:00,
2013-01-18 04:03:00,27.6,26.9,30.22,WSW,240,0.0,0.0,97,0.00,,,0.00,Wunderground v.1.15,2013-01-18 12:03:00,
2013-01-18 04:08:00,27.5,26.8,30.22,WSW,240,0.0,0.0,97,0.00,,,0.00,Wunderground v.1.15,2013-01-18 12:08:00,
2013-01-18 04:14:00,27.5,26.8,30.22,WSW,240,0.0,0.0,97,0.00,,,0.00,Wunderground v.1.15,2013-01-18 12:14:00,
2013-01-18 04:20:00,27.5,26.8,30.22,WSW,240,0.0,0.0,97,0.00,,,0.00,Wunderground v.1.15,2013-01-18 12:20:00,
2013-01-18 04:26:00,27.5,26.8,30.22,WSW,240,0.0,0.0,97,0.00,,,0.00,Wunderground v.1.15,2013-01-18 12:26:00,
2013-01-18 04:32:00,27.5,26.8,30.22,WSW,240,0.0,0.0,97,0.00,,,0.00,Wunderground v.1.15,2013-01-18 12:32:00,
2013-01-18 04:38:00,27.5,26.8,30.22,WSW,240,0.0,0.0,97,0.00,,,0.00,Wunderground v.1.15,2013-01-18 12:38:00,
2013-01-18 04:44:00,27.5,26.8,30.22,WSW,240,0.0,0.0,97,0.00,,,0.00,Wunderground v.1.15,2013-01-18 12:44:00,
2013-01-18 04:50:00,27.4,26.7,30.22,WSW,240,0.0,0.0,97,0.00,,,0.00,Wunderground v.1.15,2013-01-18 12:50:00,
2013-01-18 04:56:00,27.4,26.7,30.21,WSW,240,0.0,0.0,97,0.00,,,0.00,Wunderground v.1.15,2013-01-18 12:56:00,
2013-01-18 05:01:00,27.4,26.7,30.21,WSW,240,0.0,0.0,97,0.00,,,0.00,Wunderground v.1.15,2013-01-18 13:01:00,
2013-01-18 05:07:00,27.4,26.7,30.21,WSW,240,0.0,0.0,97,0.00,,,0.00,Wunderground v.1.15,2013-01-18 13:07:00,
2013-01-18 05:13:00,27.2,26.5,30.21,WSW,240,0.0,0.0,97,0.00,,,0.00,Wunderground v.1.15,2013-01-18 13:13:00,
2013-01-18 05:19:00,27.2,26.5,30.21,WSW,240,0.0,0.0,97,0.00,,,0.00,Wunderground v.1.15,2013-01-18 13:19:00,
2013-01-18 05:25:00,27.2,26.5,30.21,WSW,240,0.0,0.0,97,0.00,,,0.00,Wunderground v.1.15,2013-01-18 13:25:00,
2013-01-18 05:31:00,27.2,26.5,30.21,WSW,240,0.0,0.0,97,0.00,,,0.00,Wunderground v.1.15,2013-01-18 13:31:00,
2013-01-18 05:37:00,27.2,26.5,30.21,WSW,240,0.0,0.0,97,0.00,,,0.00,Wunderground v.1.15,2013-01-18 13:37:00,
2013-01-18 05:43:00,27.1,26.4,30.21,WSW,240,0.0,0.0,97,0.00,,,0.00,Wunderground v.1.15,2013-01-18 13:43:00,
2013-01-18 05:48:00,27.1,26.4,30.21,WSW,240,0.0,0.0,97,0.00,,,0.00,Wunderground v.1.15,2013-01-18 13:48:00,
2013-01-18 05:54:00,27.1,26.4,30.21,WSW,240,0.0,0.0,97,0.00,,,0.00,Wunderground v.1.15,2013-01-18 13:54:00,
2013-01-18 06:00:00,27.2,26.5,30.21,WSW,240,0.0,0.0,97,0.00,,,0.00,Wunderground v.1.15,2013-01-18 14:00:00,
2013-01-18 06:05:00,27.2,26.5,30.21,WSW,240,0.0,0.0,97,0.00,,,0.00,Wunderground v.1.15,2013-01-18 14:05:00,
2013-01-18 06:10:00,27.0,26.3,30.21,WSW,240,0.0,0.0,97,0.00,,,0.00,Wunderground v.1.15,2013-01-18 14:10:00,
2013-01-18 06:16:00,26.7,26.0,30.21,WSW,240,0.0,0.0,97,0.00,,,0.00,Wunderground v.1.15,2013-01-18 14:16:00,
2013-01-18 06:22:00,26.5,25.8,30.21,WSW,240,0.0,0.0,97,0.00,,,0.00,Wunderground v.1.15,2013-01-18 14:22:00,
2013-01-18 06:27:00,26.4,25.7,30.21,WSW,240,0.0,0.0,97,0.00,,,0.00,Wunderground v.1.15,2013-01-18 14:27:00,
2013-01-18 06:32:00,26.4,25.7,30.21,WSW,240,0.0,0.0,97,0.00,,,0.00,Wunderground v.1.15,2013-01-18 14:32:00,
2013-01-18 06:37:00,26.4,25.7,30.21,WSW,240,0.0,0.0,97,0.00,,,0.00,Wunderground v.1.15,2013-01-18 14:37:00,
2013-01-18 06:43:00,26.4,25.7,30.21,WSW,240,0.0,0.0,97,0.00,,,0.00,Wunderground v.1.15,2013-01-18 14:43:00,
2013-01-18 06:48:00,26.3,25.6,30.21,WSW,240,0.0,0.0,97,0.00,,,0.00,Wunderground v.1.15,2013-01-18 14:48:00,
2013-01-18 06:54:00,26.4,25.7,30.21,WSW,240,0.0,0.0,97,0.00,,,0.00,Wunderground v.1.15,2013-01-18 14:54:00,
2013-01-18 07:00:00,26.4,25.7,30.21,WSW,240,0.0,0.0,97,0.00,,,0.00,Wunderground v.1.15,2013-01-18 15:00:00,
2013-01-18 07:06:00,26.4,25.7,30.21,WSW,240,0.0,0.0,97,0.00,,,0.00,Wunderground v.1.15,2013-01-18 15:06:00,
2013-01-18 07:12:00,26.4,25.7,30.21,WSW,240,0.0,0.0,97,0.00,,,0.00,Wunderground v.1.15,2013-01-18 15:12:00,
2013-01-18 07:18:00,26.5,25.8,30.22,WSW,240,0.0,0.0,97,0.00,,,0.00,Wunderground v.1.15,2013-01-18 15:18:00,
2013-01-18 07:24:00,26.6,25.9,30.22,WSW,240,0.0,0.0,97,0.00,,,0.00,Wunderground v.1.15,2013-01-18 15:24:00,
2013-01-18 07:30:00,26.4,25.7,30.22,WSW,240,0.0,0.0,97,0.00,,,0.00,Wunderground v.1.15,2013-01-18 15:30:00,
2013-01-18 07:36:00,26.3,25.6,30.22,WSW,240,0.0,0.0,97,0.00,,,0.00,Wunderground v.1.15,2013-01-18 15:36:00,
2013-01-18 07:42:00,26.4,25.7,30.22,WSW,240,0.0,0.0,97,0.00,,,0.00,Wunderground v.1.15,2013-01-18 15:42:00,
2013-01-18 07:48:00,26.5,25.8,30.22,WSW,240,0.0,0.0,97,0.00,,,0.00,Wunderground v.1.15,2013-01-18 15:48:00,
2013-01-18 07:53:00,26.5,25.8,30.22,WSW,240,0.0,0.0,97,0.00,,,0.00,Wunderground v.1.15,2013-01-18 15:53:00,
2013-01-18 07:58:00,26.5,25.8,30.22,WSW,240,0.0,0.0,97,0.00,,,0.00,Wunderground v.1.15,2013-01-18 15:58:00,
2013-01-18 08:04:00,26.3,25.6,30.23,WSW,240,0.0,0.0,97,0.00,,,0.00,Wunderground v.1.15,2013-01-18 16:04:00,
2013-01-18 08:10:00,26.5,25.8,30.23,WSW,240,0.0,0.0,97,0.00,,,0.00,Wunderground v.1.15,2013-01-18 16:10:00,
2013-01-18 08:16:00,26.5,25.8,30.23,WSW,240,0.0,0.0,97,0.00,,,0.00,Wunderground v.1.15,2013-01-18 16:16:00,
2013-01-18 08:22:00,26.5,25.8,30.23,WSW,240,0.0,0.0,97,0.00,,,0.00,Wunderground v.1.15,2013-01-18 16:22:00,
2013-01-18 08:28:00,26.4,25.7,30.23,WSW,240,0.0,0.0,97,0.00,,,0.00,Wunderground v.1.15,2013-01-18 16:28:00,
2013-01-18 08:33:00,26.4,25.7,30.23,WSW,240,0.0,0.0,97,0.00,,,0.00,Wunderground v.1.15,2013-01-18 16:33:00,
2013-01-18 08:39:00,26.4,25.7,30.23,WSW,240,0.0,0.0,97,0.00,,,0.00,Wunderground v.1.15,2013-01-18 16:39:00,
2013-01-18 08:44:00,26.6,25.9,30.23,WSW,240,0.0,0.0,97,0.00,,,0.00,Wunderground v.1.15,2013-01-18 16:44:00,
2013-01-18 08:49:00,26.9,26.2,30.24,WSW,240,0.0,0.0,97,0.00,,,0.00,Wunderground v.1.15,2013-01-18 16:49:00,
2013-01-18 08:54:00,27.0,26.3,30.24,WSW,240,0.0,0.0,97,0.00,,,0.00,Wunderground v.1.15,2013-01-18 16:54:00,
2013-01-18 09:00:00,27.2,26.5,30.24,WSW,240,0.0,0.0,97,0.00,,,0.00,Wunderground v.1.15,2013-01-18 17:00:00,
2013-01-18 09:05:00,27.3,26.6,30.24,WSW,240,0.0,0.0,97,0.00,,,0.00,Wunderground v.1.15,2013-01-18 17:05:00,
2013-01-18 09:11:00,27.5,26.8,30.24,WSW,240,0.0,0.0,97,0.00,,,0.00,Wunderground v.1.15,2013-01-18 17:11:00,
2013-01-18 09:17:00,28.0,27.5,30.24,WSW,240,0.0,0.0,98,0.00,,,0.00,Wunderground v.1.15,2013-01-18 17:17:00,
2013-01-18 09:23:00,28.9,28.4,30.24,WSW,240,0.0,0.0,98,0.00,,,0.00,Wunderground v.1.15,2013-01-18 17:23:00,
2013-01-18 09:29:00,30.6,30.1,30.24,WSW,240,0.0,0.0,98,0.00,,,0.00,Wunderground v.1.15,2013-01-18 17:29:00,
2013-01-18 09:35:00,31.9,31.4,30.24,WSW,240,0.0,0.0,98,0.00,,,0.00,Wunderground v.1.15,2013-01-18 17:35:00,
2013-01-18 09:40:00,31.5,31.0,30.24,WSW,240,0.0,0.0,98,0.00,,,0.00,Wunderground v.1.15,2013-01-18 17:40:00,
2013-01-18 09:46:00,31.5,31.0,30.24,WSW,240,0.0,0.0,98,0.00,,,0.00,Wunderground v.1.15,2013-01-18 17:46:00,
2013-01-18 09:52:00,31.8,31.3,30.24,WSW,240,0.0,0.0,98,0.00,,,0.00,Wunderground v.1.15,2013-01-18 17:52:00,
2013-01-18 09:57:00,32.7,32.2,30.24,WSW,240,0.0,0.0,98,0.00,,,0.00,Wunderground v.1.15,2013-01-18 17:57:00,
2013-01-18 10:03:00,34.1,33.6,30.24,WSW,240,0.0,0.0,98,0.00,,,0.00,Wunderground v.1.15,2013-01-18 18:03:00,
2013-01-18 10:08:00,34.8,34.3,30.24,WSW,240,0.0,0.0,98,0.00,,,0.00,Wunderground v.1.15,2013-01-18 18:08:00,
2013-01-18 10:14:00,35.7,35.2,30.24,WSW,240,0.0,0.0,98,0.00,,,0.00,Wunderground v.1.15,2013-01-18 18:14:00,
2013-01-18 10:20:00,37.1,36.6,30.24,WSW,240,0.0,0.0,98,0.00,,,0.00,Wunderground v.1.15,2013-01-18 18:20:00,
2013-01-18 10:25:00,36.7,35.1,30.25,WSW,240,0.0,0.0,94,0.00,,,0.00,Wunderground v.1.15,2013-01-18 18:25:00,
2013-01-18 10:31:00,36.5,35.2,30.25,WSW,240,0.0,0.0,95,0.00,,,0.00,Wunderground v.1.15,2013-01-18 18:31:00,
2013-01-18 10:37:00,36.8,35.5,30.25,WSW,240,0.0,0.0,95,0.00,,,0.00,Wunderground v.1.15,2013-01-18 18:37:00,
2013-01-18 10:43:00,37.5,36.5,30.24,WSW,240,0.0,0.0,96,0.00,,,0.00,Wunderground v.1.15,2013-01-18 18:43:00,
2013-01-18 10:48:00,38.6,37.6,30.24,WSW,240,0.0,0.0,96,0.00,,,0.00,Wunderground v.1.15,2013-01-18 18:48:00,
2013-01-18 10:54:00,39.7,38.1,30.24,WSW,240,0.0,0.0,94,0.00,,,0.00,Wunderground v.1.15,2013-01-18 18:54:00,
2013-01-18 11:00:00,39.8,37.4,30.24,WSW,240,0.0,0.0,91,0.00,,,0.00,Wunderground v.1.15,2013-01-18 19:00:00,
2013-01-18 11:06:00,40.2,38.1,30.24,WSW,240,0.0,0.0,92,0.00,,,0.00,Wunderground v.1.15,2013-01-18 19:06:00,
2013-01-18 11:12:00,41.5,39.1,30.23,WSW,240,0.0,0.0,91,0.00,,,0.00,Wunderground v.1.15,2013-01-18 19:12:00,
2013-01-18 11:17:00,41.9,39.2,30.23,WSW,240,0.0,0.0,90,0.00,,,0.00,Wunderground v.1.15,2013-01-18 19:17:00,
2013-01-18 11:23:00,42.0,39.6,30.23,WSW,240,0.0,0.0,91,0.00,,,0.00,Wunderground v.1.15,2013-01-18 19:23:00,
2013-01-18 11:29:00,42.6,39.9,30.23,WSW,240,0.0,0.0,90,0.00,,,0.00,Wunderground v.1.15,2013-01-18 19:29:00,
2013-01-18 11:35:00,43.5,40.8,30.23,WSW,240,0.0,0.0,90,0.00,,,0.00,Wunderground v.1.15,2013-01-18 19:35:00,
2013-01-18 11:40:00,44.0,40.7,30.23,WSW,240,0.0,0.0,88,0.00,,,0.00,Wunderground v.1.15,2013-01-18 19:40:00,
2013-01-18 11:45:00,44.4,41.9,30.23,WSW,240,0.0,0.0,91,0.00,,,0.00,Wunderground v.1.15,2013-01-18 19:45:00,
2013-01-18 11:51:00,45.1,42.1,30.22,WSW,240,0.0,0.0,89,0.00,,,0.00,Wunderground v.1.15,2013-01-18 19:51:00,
2013-01-18 11:56:00,45.2,41.3,30.22,West,262,0.0,0.0,86,0.00,,,0.00,Wunderground v.1.15,2013-01-18 19:56:00,
2013-01-18 12:02:00,45.8,41.9,30.22,West,263,0.0,0.0,86,0.00,,,0.00,Wunderground v.1.15,2013-01-18 20:02:00,
2013-01-18 12:08:00,47.0,43.0,30.22,West,263,0.0,0.0,86,0.00,,,0.00,Wunderground v.1.15,2013-01-18 20:08:00,
2013-01-18 12:13:00,48.0,43.1,30.22,West,263,0.0,0.0,83,0.00,,,0.00,Wunderground v.1.15,2013-01-18 20:13:00,
2013-01-18 12:19:00,48.7,44.1,30.22,West,263,0.0,0.0,84,0.00,,,0.00,Wunderground v.1.15,2013-01-18 20:19:00,
2013-01-18 12:24:00,49.1,44.2,30.22,West,263,0.0,0.0,83,0.00,,,0.00,Wunderground v.1.15,2013-01-18 20:24:00,
2013-01-18 12:30:00,49.8,44.2,30.22,West,263,0.0,0.0,81,0.00,,,0.00,Wunderground v.1.15,2013-01-18 20:30:00,
2013-01-18 12:36:00,50.0,44.7,30.21,West,263,0.0,0.0,82,0.00,,,0.00,Wunderground v.1.15,2013-01-18 20:36:00,
2013-01-18 12:41:00,50.4,45.1,30.21,West,263,0.0,0.0,82,0.00,,,0.00,Wunderground v.1.15,2013-01-18 20:41:00,
2013-01-18 12:46:00,50.5,44.9,30.21,West,263,0.0,0.0,81,0.00,,,0.00,Wunderground v.1.15,2013-01-18 20:46:00,
2013-01-18 12:52:00,51.4,45.8,30.21,West,263,0.0,0.0,81,0.00,,,0.00,Wunderground v.1.15,2013-01-18 20:52:00,
2013-01-18 12:58:00,52.9,47.2,30.21,West,263,0.0,0.0,81,0.00,,,0.00,Wunderground v.1.15,2013-01-18 20:58:00,
2013-01-18 13:03:00,53.3,47.0,30.21,West,263,0.0,0.0,79,0.00,,,0.00,Wunderground v.1.15,2013-01-18 21:03:00,
2013-01-18 13:09:00,53.4,44.2,30.21,West,275,0.0,0.0,71,0.00,,,0.00,Wunderground v.1.15,2013-01-18 21:09:00,
2013-01-18 13:15:00,54.5,44.2,30.20,West,275,0.0,0.0,68,0.00,,,0.00,Wunderground v.1.15,2013-01-18 21:15:00,
2013-01-18 13:21:00,55.0,44.6,30.20,West,275,0.0,0.0,68,0.00,,,0.00,Wunderground v.1.15,2013-01-18 21:21:00,
2013-01-18 13:27:00,55.3,44.9,30.20,West,275,0.0,0.0,68,0.00,,,0.00,Wunderground v.1.15,2013-01-18 21:27:00,
2013-01-18 13:33:00,55.9,47.4,30.20,West,275,0.0,0.0,73,0.00,,,0.00,Wunderground v.1.15,2013-01-18 21:33:00,
2013-01-18 13:39:00,56.3,47.0,30.20,West,275,0.0,0.0,71,0.00,,,0.00,Wunderground v.1.15,2013-01-18 21:39:00,
2013-01-18 13:44:00,56.6,47.3,30.19,West,275,0.0,0.0,71,0.00,,,0.00,Wunderground v.1.15,2013-01-18 21:44:00,
2013-01-18 13:49:00,56.7,48.1,30.19,West,275,0.0,0.0,73,0.00,,,0.00,Wunderground v.1.15,2013-01-18 21:49:00,
2013-01-18 13:55:00,56.9,48.0,30.19,West,275,0.0,0.0,72,0.00,,,0.00,Wunderground v.1.15,2013-01-18 21:55:00,
2013-01-18 14:01:00,56.7,48.1,30.19,West,275,0.0,0.0,73,0.00,,,0.00,Wunderground v.1.15,2013-01-18 22:01:00,
2013-01-18 14:07:00,56.6,46.9,30.19,West,275,0.0,0.0,70,0.00,,,0.00,Wunderground v.1.15,2013-01-18 22:07:00,
2013-01-18 14:13:00,56.7,46.3,30.19,West,275,0.0,0.0,68,0.00,,,0.00,Wunderground v.1.15,2013-01-18 22:13:00,
2013-01-18 14:19:00,57.1,48.2,30.19,West,275,0.0,0.0,72,0.00,,,0.00,Wunderground v.1.15,2013-01-18 22:19:00,
2013-01-18 14:24:00,57.1,48.2,30.19,West,275,0.0,0.0,72,0.00,,,0.00,Wunderground v.1.15,2013-01-18 22:24:00,
2013-01-18 14:29:00,57.1,48.9,30.19,West,275,0.0,0.0,74,0.00,,,0.00,Wunderground v.1.15,2013-01-18 22:29:00,
2013-01-18 14:34:00,57.1,48.5,30.19,West,275,0.0,0.0,73,0.00,,,0.00,Wunderground v.1.15,2013-01-18 22:34:00,
2013-01-18 14:39:00,57.0,49.2,30.19,West,275,0.0,0.0,75,0.00,,,0.00,Wunderground v.1.15,2013-01-18 22:39:00,
2013-01-18 14:45:00,56.7,48.5,30.19,West,275,0.0,0.0,74,0.00,,,0.00,Wunderground v.1.15,2013-01-18 22:45:00,
2013-01-18 14:51:00,55.8,48.3,30.19,West,275,0.0,0.0,76,0.00,,,0.00,Wunderground v.1.15,2013-01-18 22:51:00,
2013-01-18 14:57:00,54.9,47.5,30.19,West,275,0.0,0.0,76,0.00,,,0.00,Wunderground v.1.15,2013-01-18 22:57:00,
2013-01-18 15:03:00,54.3,47.6,30.19,West,275,0.0,0.0,78,0.00,,,0.00,Wunderground v.1.15,2013-01-18 23:03:00,
2013-01-18 15:09:00,53.8,47.4,30.19,West,275,0.0,0.0,79,0.00,,,0.00,Wunderground v.1.15,2013-01-18 23:09:00,
2013-01-18 15:15:00,53.6,47.2,30.19,West,275,0.0,0.0,79,0.00,,,0.00,Wunderground v.1.15,2013-01-18 23:15:00,
2013-01-18 15:21:00,53.0,46.7,30.19,West,275,0.0,0.0,79,0.00,,,0.00,Wunderground v.1.15,2013-01-18 23:21:00,
2013-01-18 15:26:00,52.0,46.0,30.19,West,275,0.0,0.0,80,0.00,,,0.00,Wunderground v.1.15,2013-01-18 23:26:00,
2013-01-18 15:32:00,50.8,45.5,30.19,West,275,0.0,0.0,82,0.00,,,0.00,Wunderground v.1.15,2013-01-18 23:32:00,
2013-01-18 15:38:00,49.7,44.7,30.19,West,275,0.0,0.0,83,0.00,,,0.00,Wunderground v.1.15,2013-01-18 23:38:00,
2013-01-18 15:44:00,48.7,44.1,30.19,West,275,0.0,0.0,84,0.00,,,0.00,Wunderground v.1.15,2013-01-18 23:44:00,
2013-01-18 15:50:00,47.9,44.2,30.19,West,275,0.0,0.0,87,0.00,,,0.00,Wunderground v.1.15,2013-01-18 23:50:00,
2013-01-18 15:56:00,47.2,43.8,30.19,West,275,0.0,0.0,88,0.00,,,0.00,Wunderground v.1.15,2013-01-18 23:56:00,
2013-01-18 16:02:00,46.6,43.2,30.19,West,275,0.0,0.0,88,0.00,,,0.00,Wunderground v.1.15,2013-01-19 00:02:00,
2013-01-18 16:08:00,46.0,42.9,30.20,West,275,0.0,0.0,89,0.00,,,0.00,Wunderground v.1.15,2013-01-19 00:08:00,
2013-01-18 16:14:00,45.5,42.7,30.20,West,275,0.0,0.0,90,0.00,,,0.00,Wunderground v.1.15,2013-01-19 00:14:00,
2013-01-18 16:19:00,45.1,42.6,30.19,West,275,0.0,0.0,91,0.00,,,0.00,Wunderground v.1.15,2013-01-19 00:19:00,
2013-01-18 16:25:00,44.6,42.1,30.19,West,275,0.0,0.0,91,0.00,,,0.00,Wunderground v.1.15,2013-01-19 00:25:00,
2013-01-18 16:30:00,44.2,42.0,30.19,West,275,0.0,0.0,92,0.00,,,0.00,Wunderground v.1.15,2013-01-19 00:30:00,
2013-01-18 16:35:00,43.9,41.7,30.19,West,275,0.0,0.0,92,0.00,,,0.00,Wunderground v.1.15,2013-01-19 00:35:00,
2013-01-18 16:41:00,43.5,41.3,30.19,West,275,0.0,0.0,92,0.00,,,0.00,Wunderground v.1.15,2013-01-19 00:41:00,
2013-01-18 16:47:00,43.2,41.0,30.19,West,275,0.0,0.0,92,0.00,,,0.00,Wunderground v.1.15,2013-01-19 00:47:00,
2013-01-18 16:53:00,42.7,40.8,30.20,West,275,0.0,0.0,93,0.00,,,0.00,Wunderground v.1.15,2013-01-19 00:53:00,
2013-01-18 16:59:00,42.2,40.3,30.20,West,275,0.0,0.0,93,0.00,,,0.00,Wunderground v.1.15,2013-01-19 00:59:00,
2013-01-18 17:04:00,41.8,39.9,30.20,West,275,0.0,0.0,93,0.00,,,0.00,Wunderground v.1.15,2013-01-19 01:04:00,
2013-01-18 17:10:00,41.4,39.5,30.20,West,275,0.0,0.0,93,0.00,,,0.00,Wunderground v.1.15,2013-01-19 01:10:00,
2013-01-18 17:16:00,41.0,39.1,30.20,West,275,0.0,0.0,93,0.00,,,0.00,Wunderground v.1.15,2013-01-19 01:16:00,
2013-01-18 17:22:00,40.5,38.6,30.20,West,275,0.0,0.0,93,0.00,,,0.00,Wunderground v.1.15,2013-01-19 01:22:00,
2013-01-18 17:27:00,40.0,38.1,30.20,West,275,0.0,0.0,93,0.00,,,0.00,Wunderground v.1.15,2013-01-19 01:27:00,
2013-01-18 17:33:00,39.6,38.0,30.20,West,275,0.0,0.0,94,0.00,,,0.00,Wunderground v.1.15,2013-01-19 01:33:00,
2013-01-18 17:39:00,39.2,37.6,30.20,West,275,0.0,0.0,94,0.00,,,0.00,Wunderground v.1.15,2013-01-19 01:39:00,
2013-01-18 17:45:00,38.8,36.9,30.20,West,275,0.0,0.0,93,0.00,,,0.00,Wunderground v.1.15,2013-01-19 01:45:00,
2013-01-18 17:51:00,38.3,36.5,30.20,West,275,0.0,0.0,93,0.00,,,0.00,Wunderground v.1.15,2013-01-19 01:51:00,
2013-01-18 17:57:00,37.9,36.1,30.20,West,275,0.0,0.0,93,0.00,,,0.00,Wunderground v.1.15,2013-01-19 01:57:00,
2013-01-18 18:03:00,37.4,35.8,30.20,West,275,0.0,0.0,94,0.00,,,0.00,Wunderground v.1.15,2013-01-19 02:03:00,
2013-01-18 18:09:00,37.0,35.2,30.20,West,275,0.0,0.0,93,0.00,,,0.00,Wunderground v.1.15,2013-01-19 02:09:00,
2013-01-18 18:15:00,36.7,35.1,30.20,West,275,0.0,0.0,94,0.00,,,0.00,Wunderground v.1.15,2013-01-19 02:15:00,
2013-01-18 18:20:00,36.5,34.9,30.21,West,275,0.0,0.0,94,0.00,,,0.00,Wunderground v.1.15,2013-01-19 02:20:00,
2013-01-18 18:25:00,36.2,34.6,30.21,West,275,0.0,0.0,94,0.00,,,0.00,Wunderground v.1.15,2013-01-19 02:25:00,
2013-01-18 18:30:00,35.9,34.3,30.21,West,275,0.0,0.0,94,0.00,,,0.00,Wunderground v.1.15,2013-01-19 02:30:00,
2013-01-18 18:36:00,35.7,34.4,30.21,West,275,0.0,0.0,95,0.00,,,0.00,Wunderground v.1.15,2013-01-19 02:36:00,
2013-01-18 18:41:00,35.5,34.2,30.21,West,275,0.0,0.0,95,0.00,,,0.00,Wunderground v.1.15,2013-01-19 02:41:00,
2013-01-18 18:46:00,35.2,33.9,30.21,West,275,0.0,0.0,95,0.00,,,0.00,Wunderground v.1.15,2013-01-19 02:46:00,
2013-01-18 18:52:00,35.0,33.7,30.21,West,275,0.0,0.0,95,0.00,,,0.00,Wunderground v.1.15,2013-01-19 02:52:00,
2013-01-18 18:57:00,34.8,33.5,30.21,West,275,0.0,0.0,95,0.00,,,0.00,Wunderground v.1.15,2013-01-19 02:57:00,
2013-01-18 19:03:00,34.5,33.2,30.21,West,275,0.0,0.0,95,0.00,,,0.00,Wunderground v.1.15,2013-01-19 03:03:00,
2013-01-18 19:08:00,34.3,33.0,30.21,West,275,0.0,0.0,95,0.00,,,0.00,Wunderground v.1.15,2013-01-19 03:08:00,
2013-01-18 19:14:00,34.1,32.8,30.21,West,275,0.0,0.0,95,0.00,,,0.00,Wunderground v.1.15,2013-01-19 03:14:00,
2013-01-18 19:20:00,33.8,32.5,30.21,West,275,0.0,0.0,95,0.00,,,0.00,Wunderground v.1.15,2013-01-19 03:20:00,
2013-01-18 19:26:00,33.6,32.3,30.21,West,275,0.0,0.0,95,0.00,,,0.00,Wunderground v.1.15,2013-01-19 03:26:00,
2013-01-18 19:32:00,33.4,32.4,30.21,West,275,0.0,0.0,96,0.00,,,0.00,Wunderground v.1.15,2013-01-19 03:32:00,
2013-01-18 19:38:00,33.2,31.9,30.21,West,275,0.0,0.0,95,0.00,,,0.00,Wunderground v.1.15,2013-01-19 03:38:00,
2013-01-18 19:44:00,33.1,31.8,30.21,West,275,0.0,0.0,95,0.00,,,0.00,Wunderground v.1.15,2013-01-19 03:44:00,
2013-01-18 19:50:00,32.9,31.9,30.21,West,275,0.0,0.0,96,0.00,,,0.00,Wunderground v.1.15,2013-01-19 03:50:00,
2013-01-18 19:56:00,32.8,31.8,30.21,West,275,0.0,0.0,96,0.00,,,0.00,Wunderground v.1.15,2013-01-19 03:56:00,
2013-01-18 20:02:00,32.7,31.7,30.21,West,275,0.0,0.0,96,0.00,,,0.00,Wunderground v.1.15,2013-01-19 04:02:00,
2013-01-18 20:08:00,32.5,31.5,30.21,West,275,0.0,0.0,96,0.00,,,0.00,Wunderground v.1.15,2013-01-19 04:08:00,
2013-01-18 20:14:00,32.4,31.4,30.21,West,275,0.0,0.0,96,0.00,,,0.00,Wunderground v.1.15,2013-01-19 04:14:00,
2013-01-18 20:19:00,32.3,31.3,30.21,West,275,0.0,0.0,96,0.00,,,0.00,Wunderground v.1.15,2013-01-19 04:19:00,
2013-01-18 20:24:00,32.3,31.3,30.21,West,275,0.0,0.0,96,0.00,,,0.00,Wunderground v.1.15,2013-01-19 04:24:00,
2013-01-18 20:29:00,32.3,31.3,30.21,West,275,0.0,0.0,96,0.00,,,0.00,Wunderground v.1.15,2013-01-19 04:29:00,
2013-01-18 20:34:00,32.2,31.2,30.21,West,275,0.0,0.0,96,0.00,,,0.00,Wunderground v.1.15,2013-01-19 04:34:00,
2013-01-18 20:40:00,32.1,31.1,30.21,West,275,0.0,0.0,96,0.00,,,0.00,Wunderground v.1.15,2013-01-19 04:40:00,
2013-01-18 20:45:00,32.0,31.0,30.22,West,275,0.0,0.0,96,0.00,,,0.00,Wunderground v.1.15,2013-01-19 04:45:00,
2013-01-18 20:51:00,31.9,31.1,30.22,West,275,0.0,0.0,97,0.00,,,0.00,Wunderground v.1.15,2013-01-19 04:51:00,
2013-01-18 20:57:00,31.8,30.8,30.22,West,275,0.0,0.0,96,0.00,,,0.00,Wunderground v.1.15,2013-01-19 04:57:00,
2013-01-18 21:03:00,31.7,30.7,30.22,West,275,0.0,0.0,96,0.00,,,0.00,Wunderground v.1.15,2013-01-19 05:03:00,
2013-01-18 21:04:00,31.7,30.7,30.22,West,275,0.0,0.0,96,0.00,,,0.00,Wunderground v.1.15,2013-01-19 05:04:00,
2013-01-18 21:05:00,31.7,30.7,30.22,West,275,0.0,0.0,96,0.00,,,0.00,Wunderground v.1.15,2013-01-19 05:05:00,
2013-01-18 21:09:00,31.5,30.5,30.22,West,275,0.0,0.0,96,0.00,,,0.00,Wunderground v.1.15,2013-01-19 05:09:00,
2013-01-18 21:14:00,31.4,30.4,30.22,West,275,0.0,0.0,96,0.00,,,0.00,Wunderground v.1.15,2013-01-19 05:14:00,
2013-01-18 21:20:00,31.2,30.2,30.22,West,275,0.0,0.0,96,0.00,,,0.00,Wunderground v.1.15,2013-01-19 05:20:00,
2013-01-18 21:26:00,31.1,30.1,30.22,West,275,0.0,0.0,96,0.00,,,0.00,Wunderground v.1.15,2013-01-19 05:26:00,
2013-01-18 21:32:00,31.0,30.0,30.22,West,275,0.0,0.0,96,0.00,,,0.00,Wunderground v.1.15,2013-01-19 05:32:00,
2013-01-18 21:38:00,30.8,30.0,30.22,West,275,0.0,0.0,97,0.00,,,0.00,Wunderground v.1.15,2013-01-19 05:38:00,
2013-01-18 21:44:00,30.7,29.7,30.22,West,275,0.0,0.0,96,0.00,,,0.00,Wunderground v.1.15,2013-01-19 05:44:00,
2013-01-18 21:49:00,30.7,30.0,30.22,West,275,0.0,0.0,97,0.00,,,0.00,Wunderground v.1.15,2013-01-19 05:49:00,
2013-01-18 21:54:00,30.7,30.0,30.22,West,275,0.0,0.0,97,0.00,,,0.00,Wunderground v.1.15,2013-01-19 05:54:00,
2013-01-18 22:00:00,30.6,29.9,30.22,West,275,0.0,0.0,97,0.00,,,0.00,Wunderground v.1.15,2013-01-19 06:00:00,
2013-01-18 22:06:00,30.5,29.8,30.22,West,275,0.0,0.0,97,0.00,,,0.00,Wunderground v.1.15,2013-01-19 06:06:00,
2013-01-18 22:11:00,30.5,29.8,30.22,West,275,0.0,0.0,97,0.00,,,0.00,Wunderground v.1.15,2013-01-19 06:11:00,
2013-01-18 22:17:00,30.4,29.7,30.22,West,275,0.0,0.0,97,0.00,,,0.00,Wunderground v.1.15,2013-01-19 06:17:00,
2013-01-18 22:22:00,30.3,29.6,30.22,West,275,0.0,0.0,97,0.00,,,0.00,Wunderground v.1.15,2013-01-19 06:22:00,
2013-01-18 22:27:00,30.2,29.5,30.22,West,275,0.0,0.0,97,0.00,,,0.00,Wunderground v.1.15,2013-01-19 06:27:00,
2013-01-18 22:33:00,30.1,29.4,30.22,West,275,0.0,0.0,97,0.00,,,0.00,Wunderground v.1.15,2013-01-19 06:33:00,
2013-01-18 22:39:00,30.1,29.4,30.22,West,275,0.0,0.0,97,0.00,,,0.00,Wunderground v.1.15,2013-01-19 06:39:00,
2013-01-18 22:45:00,30.0,29.3,30.22,West,275,0.0,0.0,97,0.00,,,0.00,Wunderground v.1.15,2013-01-19 06:45:00,
2013-01-18 22:50:00,30.0,29.3,30.22,West,275,0.0,0.0,97,0.00,,,0.00,Wunderground v.1.15,2013-01-19 06:50:00,
2013-01-18 22:56:00,29.9,29.2,30.22,West,275,0.0,0.0,97,0.00,,,0.00,Wunderground v.1.15,2013-01-19 06:56:00,
2013-01-18 23:02:00,29.8,29.1,30.22,West,275,0.0,0.0,97,0.00,,,0.00,Wunderground v.1.15,2013-01-19 07:02:00,
2013-01-18 23:08:00,29.8,29.1,30.22,West,275,0.0,0.0,97,0.00,,,0.00,Wunderground v.1.15,2013-01-19 07:08:00,
2013-01-18 23:14:00,29.8,29.1,30.22,West,275,0.0,0.0,97,0.00,,,0.00,Wunderground v.1.15,2013-01-19 07:14:00,
2013-01-18 23:19:00,29.8,29.1,30.22,West,275,0.0,0.0,97,0.00,,,0.00,Wunderground v.1.15,2013-01-19 07:19:00,
2013-01-18 23:24:00,29.7,29.0,30.22,West,275,0.0,0.0,97,0.00,,,0.00,Wunderground v.1.15,2013-01-19 07:24:00,
2013-01-18 23:30:00,29.7,29.0,30.22,West,275,0.0,0.0,97,0.00,,,0.00,Wunderground v.1.15,2013-01-19 07:30:00,
2013-01-18 23:35:00,29.7,29.0,30.22,West,275,0.0,0.0,97,0.00,,,0.00,Wunderground v.1.15,2013-01-19 07:35:00,
2013-01-18 23:41:00,29.6,28.9,30.22,West,275,0.0,0.0,97,0.00,,,0.00,Wunderground v.1.15,2013-01-19 07:41:00,
2013-01-18 23:47:00,29.5,28.8,30.22,West,275,0.0,0.0,97,0.00,,,0.00,Wunderground v.1.15,2013-01-19 07:47:00,
2013-01-18 23:53:00,29.4,28.7,30.22,West,275,0.0,0.0,97,0.00,,,0.00,Wunderground v.1.15,2013-01-19 07:53:00,
2013-01-18 23:58:00,29.5,28.8,30.21,West,275,0.0,0.0,97,0.00,,,0.00,Wunderground v.1.15,2013-01-19 07:58:00,